STARLINK-2040 (47656 NORAD) Tracking and Keplerian Element Data

This shows tracking and keplerian element data for the satellite.

Feedback or suggestion? Click here.




ElementValue
Catalog47656
NameSTARLINK-2040
Epoch Orbit235
Epoch Day57.16667824
Epoch Year2021
RAAN52.0342
Inclination53.0495
Eccentricity0.0001294
Argument of Perigee88.5594
Mean Anonmoly166.0244
Mean Motion15.86134007
Decay Rate0.00073495
L11 47656U 21012AN 21057.16667824 .00073495 00000-0 29075-3 0 9993
L22 47656 53.0495 52.0342 0001294 88.5594 166.0244 15.86134007 2355

Live tracking and technical data element details for STARLINK-2040 (NORAD 47656). STARLINK-2040 can be tracked NOW for your location showing map with azimuth and elevation plus other details from your city location.

Track the satellite on the map from your city or location and see movement details for azimuth, elevation, latitude, longitude, range, height, and movement on the map or in text.







IsCatalogInMostPopularTable: catalog: 47656, numindb: 1
Update: records affected: 1



GetName: 47656 STARLINK-2040

Hit Count: updated at: Fri, 26 Feb 2021 09:41:00 GMT